sat.trackr.live / text

‹ back to catalog

ROCK

NORAD 60474 · 2024-149G

PAYLOAD ACTIVE UNKNOWN

§ Identity

Operator
Country
US
Launch date
2024-08-16
Launch site
AFWTR
Launch vehicle
Mass (kg)
RCS (m²)

External: N2YO · Heavens-Above · Gunter

§ Orbital elements

Epoch: 2026-05-24T18:42:55.483776Z

Period
93.57 min
Inclination
97.3771°
Eccentricity
0.0001199
Mean motion
15.38915226 rev/d
Perigee alt
448.5 km
Apogee alt
450.1 km
Semi-major
6,827.5 km
B*
3.4329e-4
RAAN
227.9951°
Arg perigee
38.3302°
Mean anomaly
321.8028°
Rev number
9,866

§ Raw data

ROCK1 60474U 24149G   26144.77980884  .00013143  00000+0  34329-3 0  99942 60474  97.3771 227.9951 0001199  38.3302 321.8028 15.38915226 98666

JSON: /api/v1/satellites/60474 · /tle

For live sub-satellite position, see the globe view (requires WebGL).

§ Visibility from observer

Set your observer location to see the next 7 days of passes ≥ 10°. The values pass through the URL so the page stays shareable.

No JS? Fill the form by hand. The geolocation button needs JavaScript.